EW8328 Weather Reports


Display with metric or nautical units.
time (UTC)temp
F
wind
direction
speed
MPH
gust
MPH
rain 1hr
in
rain 24hr
in
rain mn
in
humidity
%
barometer
mb
20260901063814 55 246 2.0 5.0 0.00 0.00 0.00 90 1016.2
20260901063313 55 233 2.0 6.0 0.00 0.00 0.00 90 1016.2
20260901062813 55 248 6.0 8.0 0.00 0.00 0.00 91 1016.2
20260901062313 54 250 4.0 8.0 0.00 0.00 0.00 91 1016.2
20260901061813 54 244 5.0 8.0 0.00 0.00 0.00 92 1016.2
20260901061313 54 245 2.0 6.0 0.00 0.00 0.00 92 1016.2
20260901060813 54 246 3.0 6.0 0.00 0.00 0.00 92 1016.1
20260901055813 53 241 1.0 3.0 0.00 0.00 0.00 92 1016.1
20260901055313 53 250 3.0 6.0 0.00 0.00 0.00 92 1016.1
20260901054814 53 256 1.0 3.0 0.00 0.00 0.00 92 1016.1
20260901054313 53 253 1.0 3.0 0.00 0.00 0.00 92 1016.1
20260901053313 53 279 2.0 3.0 0.00 0.00 0.00 93 1016.0
20260901052313 52 348 1.0 2.0 0.00 0.00 0.00 92 1016.0
20260901051814 52 348 1.0 2.0 0.00 0.00 0.00 92 1016.0
20260901051313 52 291 1.0 3.0 0.00 0.00 0.00 91 1016.0
20260901050813 52 291 1.0 1.0 0.00 0.00 0.00 91 1016.0
20260901045813 53 291 1.0 1.0 0.00 0.00 0.00 91 1016.0
20260901045313 53 291 1.0 2.0 0.00 0.00 0.00 91 1016.0
20260901044313 53 291 0.0 2.0 0.00 0.00 0.00 91 1016.0
20260901043313 53 291 1.0 2.0 0.00 0.00 0.00 91 1016.0
20260901042813 53 291 1.0 3.0 0.00 0.00 0.00 90 1016.0
20260901042312 53 291 1.0 3.0 0.00 0.00 0.00 90 1015.9
20260901041813 53 291 1.0 2.0 0.00 0.00 0.00 90 1015.9
20260901041312 53 291 1.0 2.0 0.00 0.00 0.00 90 1016.0
20260901040813 53 291 1.0 2.0 0.00 0.00 0.00 89 1015.9
20260901040313 53 291 2.0 3.0 0.00 0.00 0.00 89 1015.8
20260901035815 53 291 1.0 2.0 0.00 0.00 0.00 89 1015.9
20260901035313 54 291 1.0 2.0 0.00 0.00 0.00 89 1015.8
20260901034813 54 291 0.0 2.0 0.00 0.00 0.00 89 1015.9
20260901034313 54 291 1.0 2.0 0.00 0.00 0.00 89 1015.8
20260901033313 54 291 2.0 3.0 0.00 0.00 0.00 89 1015.9
20260901032813 54 259 2.0 3.0 0.00 0.00 0.00 90 1016.0
20260901032312 53 259 2.0 5.0 0.00 0.00 0.00 90 1016.0
20260901031814 53 238 1.0 2.0 0.00 0.00 0.00 90 1015.9
20260901031312 54 214 0.0 2.0 0.00 0.00 0.00 90 1015.8
20260901030813 54 214 1.0 3.0 0.00 0.00 0.00 90 1015.8
20260901030314 54 247 2.0 3.0 0.00 0.00 0.00 90 1015.8
20260901025813 54 243 1.0 3.0 0.00 0.00 0.00 90 1015.8
20260901025313 54 309 1.0 3.0 0.00 0.00 0.00 90 1015.9
20260901024813 54 319 1.0 2.0 0.00 0.00 0.00 91 1015.9
20260901024312 54 319 1.0 2.0 0.00 0.00 0.00 91 1015.9
20260901023813 53 319 0.0 2.0 0.00 0.00 0.00 92 1015.9
20260901023313 53 319 0.0 2.0 0.00 0.00 0.00 92 1015.9
20260901022813 53 319 0.0 2.0 0.00 0.00 0.00 92 1016.0
20260901022313 53 319 1.0 2.0 0.00 0.00 0.00 92 1016.0
20260901021813 52 319 0.0 1.0 0.00 0.00 0.00 91 1016.1
20260901021313 52 319 1.0 2.0 0.00 0.00 0.00 91 1016.1
20260901020814 52 319 0.0 2.0 0.00 0.00 0.00 91 1016.1
20260901020313 52 319 1.0 1.0 0.00 0.00 0.00 91 1016.2
20260901015313 53 319 1.0 1.0 0.00 0.00 0.00 90 1016.2
20260901014813 53 319 1.0 1.0 0.00 0.00 0.00 90 1016.2
20260901014313 53 319 0.0 1.0 0.00 0.00 0.00 90 1016.2
20260901013813 53 319 0.0 2.0 0.00 0.00 0.00 90 1016.1
20260901013312 53 319 1.0 1.0 0.00 0.00 0.00 90 1016.2
20260901012813 53 319 1.0 2.0 0.00 0.00 0.00 89 1016.1
20260901012312 53 319 1.0 2.0 0.00 0.00 0.00 89 1016.2
20260901011312 53 319 0.0 2.0 0.00 0.00 0.00 89 1016.2
20260901010814 53 319 0.0 1.0 0.00 0.00 0.00 89 1016.1
20260901010313 53 319 0.0 0.0 0.00 0.00 0.00 89 1016.1
20260901005813 53 319 1.0 2.0 0.00 0.00 0.00 88 1016.1
20260901005313 54 319 0.0 3.0 0.00 0.00 0.00 89 1016.0
20260901004814 54 340 1.0 1.0 0.00 0.00 0.00 89 1016.0
20260901004313 54 333 1.0 3.0 0.00 0.00 0.00 88 1016.0
20260901003813 54 304 0.0 1.0 0.00 0.00 0.00 88 1016.0
20260901003313 54 304 1.0 2.0 0.00 0.00 0.00 88 1015.9
20260901002813 54 275 1.0 1.0 0.00 0.00 0.00 88 1015.9
20260901002313 54 275 1.0 2.0 0.00 0.00 0.00 88 1015.9
20260901001813 54 275 1.0 2.0 0.00 0.00 0.00 88 1015.9
20260901001312 54 275 1.0 1.0 0.00 0.00 0.00 88 1015.9
20260901000813 54 275 1.0 18.0 0.00 0.01 0.00 88 1016.0
20260901000314 54 275 1.0 1.0 0.00 0.01 0.00 88 1016.0
20260831234312 54 257 0.0 2.0 0.00 0.01 0.00 88 1015.9
20260831233813 54 257 1.0 2.0 0.00 0.01 0.00 88 1015.9
20260831233312 54 257 0.0 2.0 0.00 0.01 0.00 88 1015.9
20260831232812 54 257 0.0 2.0 0.00 0.01 0.00 88 1015.8
20260831232313 54 257 0.0 2.0 0.00 0.01 0.00 87 1015.8
20260831231313 54 257 1.0 3.0 0.00 0.02 0.00 87 1015.9
20260831230902 54 257 1.0 3.0 0.00 0.02 0.00 87 1015.9
20260831230312 55 277 1.0 3.0 0.00 0.02 0.00 87 1015.8
20260831225813 55 279 0.0 2.0 0.00 0.02 0.02 87 1015.8
20260831225313 55 279 0.0 2.0 0.00 0.02 0.02 86 1015.8
20260831224813 55 279 0.0 3.0 0.00 0.02 0.02 86 1015.9
20260831224312 55 262 2.0 3.0 0.00 0.02 0.02 86 1015.8
20260831223813 55 280 2.0 6.0 0.00 0.02 0.02 86 1015.8
20260831222813 55 230 2.0 3.0 0.00 0.02 0.02 84 1015.7
20260831222312 55 230 0.0 2.0 0.00 0.02 0.02 84 1015.7
20260831221814 55 230 1.0 3.0 0.00 0.02 0.02 84 1015.6
20260831221312 55 230 1.0 2.0 0.00 0.02 0.02 84 1015.5
20260831220313 56 258 1.0 5.0 0.00 0.02 0.02 84 1015.6
20260831215813 56 265 0.0 2.0 0.00 0.02 0.02 83 1015.6
20260831214312 56 271 3.0 6.0 0.00 0.02 0.02 82 1015.5
20260831213813 56 250 2.0 3.0 0.00 0.02 0.02 82 1015.4
20260831213312 56 275 1.0 3.0 0.00 0.02 0.02 82 1015.4
20260831212813 56 284 2.0 8.0 0.00 0.02 0.02 82 1015.4
20260831212312 56 257 3.0 5.0 0.00 0.02 0.02 82 1015.3
20260831211813 56 261 3.0 5.0 0.00 0.02 0.02 82 1015.3
20260831211312 56 249 2.0 6.0 0.00 0.02 0.02 82 1015.3
20260831210814 56 270 1.0 5.0 0.00 0.02 0.02 82 1015.2
20260831210312 56 270 4.0 8.0 0.00 0.02 0.02 81 1015.2
20260831205813 56 270 3.0 8.0 0.00 0.02 0.02 81 1015.1
20260831205312 57 248 3.0 12.0 0.00 0.02 0.02 81 1015.1
20260831204812 57 251 3.0 8.0 0.00 0.02 0.02 81 1015.0
20260831203812 57 243 5.0 9.0 0.00 0.02 0.02 80 1015.0
20260831203313 57 244 4.0 7.0 0.00 0.02 0.02 79 1015.0
20260831202812 57 257 4.0 8.0 0.00 0.02 0.02 79 1015.0
20260831202312 57 271 4.0 8.0 0.00 0.02 0.02 79 1014.9
20260831201813 57 261 3.0 8.0 0.00 0.02 0.02 79 1014.9
20260831201312 57 254 5.0 10.0 0.00 0.02 0.02 79 1014.8
20260831200814 57 245 4.0 9.0 0.00 0.02 0.02 79 1014.7
20260831200313 57 255 4.0 8.0 0.00 0.02 0.02 79 1014.7
20260831195312 57 254 6.0 12.0 0.00 0.02 0.02 78 1014.6
20260831194813 57 258 6.0 9.0 0.00 0.02 0.02 78 1014.5
20260831194313 57 243 7.0 15.0 0.00 0.02 0.02 78 1014.4
20260831193812 57 260 6.0 9.0 0.00 0.02 0.02 78 1014.3
20260831193313 57 274 5.0 9.0 0.00 0.02 0.02 78 1014.3
20260831192813 57 264 6.0 12.0 0.00 0.02 0.02 78 1014.2
20260831192312 57 258 5.0 10.0 0.00 0.02 0.02 78 1014.1
20260831191813 57 245 5.0 9.0 0.00 0.02 0.02 79 1014.0
20260831191312 58 252 7.0 12.0 0.00 0.02 0.02 78 1014.0
20260831190314 58 250 6.0 12.0 0.00 0.02 0.02 79 1013.9
20260831185812 58 253 5.0 9.0 0.00 0.02 0.02 79 1013.8
20260831185312 58 251 6.0 12.0 0.00 0.02 0.02 79 1013.7
20260831184812 58 253 5.0 12.0 0.00 0.02 0.02 78 1013.7
20260831183813 58 247 7.0 12.0 0.00 0.03 0.02 78 1013.6
20260831183312 58 250 7.0 12.0 0.00 0.06 0.02 77 1013.6
20260831182813 58 243 7.0 17.0 0.00 0.07 0.02 77 1013.5
20260831182312 58 257 6.0 12.0 0.00 0.08 0.02 77 1013.4
20260831181812 58 243 5.0 8.0 0.00 0.09 0.02 77 1013.4
20260831181313 58 259 6.0 12.0 0.00 0.10 0.02 76 1013.3
20260831180812 59 253 7.0 12.0 0.00 0.13 0.02 76 1013.2
20260831175812 59 253 6.0 16.0 0.00 0.20 0.02 76 1013.1
20260831175312 59 256 5.0 13.0 0.00 0.20 0.02 76 1013.0
20260831174813 59 247 7.0 12.0 0.00 0.20 0.02 75 1012.9
20260831173812 59 251 5.0 12.0 0.00 0.24 0.02 75 1012.8
20260831173312 59 254 9.0 18.0 0.00 0.24 0.02 75 1012.6
20260831172812 59 256 6.0 12.0 0.00 0.24 0.02 76 1012.6
20260831172313 59 253 5.0 15.0 0.00 0.24 0.02 76 1012.5
20260831171812 59 250 9.0 16.0 0.00 0.24 0.02 75 1012.5
20260831171313 60 252 6.0 13.0 0.00 0.24 0.02 76 1012.5
20260831170813 60 259 8.0 15.0 0.00 0.24 0.02 76 1012.5
20260831170313 60 254 5.0 9.0 0.00 0.24 0.02 76 1012.4
20260831165812 60 265 7.0 14.0 0.00 0.24 0.02 75 1012.4
20260831165312 60 251 7.0 16.0 0.00 0.24 0.02 76 1012.3
20260831164812 61 257 6.0 12.0 0.00 0.24 0.02 75 1012.3
20260831164312 61 250 7.0 14.0 0.00 0.24 0.02 76 1012.3
20260831163812 61 241 6.0 14.0 0.00 0.24 0.02 78 1012.2
20260831162812 61 254 6.0 10.0 0.00 0.24 0.02 79 1012.2
20260831161812 62 247 6.0 12.0 0.00 0.24 0.02 78 1012.2
20260831161312 62 244 6.0 12.0 0.00 0.24 0.02 78 1012.2
20260831160313 62 246 6.0 12.0 0.00 0.24 0.02 74 1012.1
20260831155813 63 249 5.0 14.0 0.00 0.24 0.02 73 1012.1
20260831155312 63 257 6.0 13.0 0.00 0.24 0.02 72 1011.9
20260831154813 64 249 6.0 13.0 0.00 0.24 0.02 70 1011.8
20260831154312 65 246 6.0 12.0 0.00 0.24 0.02 70 1011.7
20260831153812 64 254 5.0 14.0 0.00 0.24 0.02 71 1011.7
20260831153312 64 242 7.0 16.0 0.00 0.24 0.02 71 1011.6
20260831152812 64 241 6.0 13.0 0.00 0.24 0.02 73 1011.5
20260831152313 64 243 6.0 16.0 0.00 0.24 0.02 74 1011.4
20260831151812 64 251 6.0 16.0 0.00 0.24 0.02 73 1011.3
20260831151312 63 259 5.0 14.0 0.00 0.24 0.02 75 1011.1
20260831150812 64 255 5.0 13.0 0.00 0.24 0.02 74 1011.2
20260831150312 65 250 7.0 14.0 0.00 0.24 0.02 73 1011.1
20260831145812 64 275 8.0 18.0 0.00 0.24 0.02 72 1011.1
20260831145312 64 281 5.0 15.0 0.00 0.24 0.02 74 1010.9
20260831143812 65 239 7.0 18.0 0.00 0.24 0.02 73 1010.8
20260831143314 65 248 7.0 14.0 0.00 0.25 0.02 73 1010.7
20260831142812 65 246 7.0 14.0 0.00 0.26 0.02 74 1010.7
20260831142313 65 259 6.0 13.0 0.00 0.26 0.02 73 1010.6
20260831141812 66 268 6.0 14.0 0.00 0.26 0.02 71 1010.5
20260831141312 66 243 8.0 14.0 0.00 0.26 0.02 71 1010.4
20260831140813 66 267 9.0 15.0 0.00 0.26 0.02 70 1010.3
20260831135812 66 258 6.0 12.0 0.00 0.26 0.02 72 1010.3
20260831135311 66 272 7.0 13.0 0.00 0.26 0.02 72 1010.3
20260831134312 66 251 6.0 14.0 0.00 0.26 0.02 73 1010.1
20260831133812 66 248 7.0 18.0 0.00 0.26 0.02 71 1010.0
20260831133312 66 253 6.0 13.0 0.00 0.26 0.02 73 1009.8
20260831132813 65 274 7.0 13.0 0.00 0.26 0.02 73 1009.7
20260831131813 65 257 6.0 16.0 0.00 0.26 0.02 74 1009.6
20260831131312 65 265 5.0 10.0 0.00 0.26 0.02 74 1009.7
20260831130812 65 251 6.0 12.0 0.00 0.26 0.02 75 1009.6
20260831130311 65 263 4.0 8.0 0.00 0.26 0.02 76 1009.5
20260831125813 65 252 3.0 10.0 0.00 0.26 0.02 74 1009.5
20260831125312 66 243 6.0 12.0 0.00 0.26 0.02 75 1009.4
20260831124813 65 253 6.0 14.0 0.00 0.26 0.02 77 1009.3
20260831124312 66 248 8.0 13.0 0.00 0.26 0.02 74 1009.2
20260831123312 66 247 6.0 14.0 0.00 0.26 0.02 75 1009.0
20260831122312 66 248 6.0 12.0 0.00 0.26 0.02 75 1008.8
20260831121811 66 253 7.0 17.0 0.00 0.26 0.02 75 1008.8
20260831121313 66 249 6.0 12.0 0.00 0.26 0.02 76 1008.7
20260831120812 66 252 7.0 16.0 0.00 0.26 0.02 76 1008.6
20260831120312 65 239 5.0 13.0 0.00 0.26 0.02 78 1008.6
20260831115312 65 285 4.0 15.0 0.00 0.26 0.02 79 1008.4
20260831114812 65 247 6.0 12.0 0.00 0.26 0.02 77 1008.3
20260831114312 66 254 6.0 13.0 0.00 0.26 0.02 77 1008.2
20260831113813 67 241 6.0 12.0 0.00 0.26 0.02 77 1008.0
20260831113312 65 246 5.0 12.0 0.00 0.26 0.02 81 1007.9
20260831112812 64 241 6.0 12.0 0.00 0.26 0.02 82 1008.0
20260831112311 65 250 6.0 12.0 0.00 0.26 0.02 79 1007.9
20260831111812 66 259 5.0 12.0 0.00 0.26 0.02 77 1007.7
20260831110812 66 248 6.0 12.0 0.00 0.26 0.02 77 1007.5
20260831105812 65 251 2.0 7.0 0.00 0.26 0.02 83 1007.4
20260831105311 64 281 3.0 9.0 0.00 0.26 0.02 80 1007.4
20260831104813 64 273 2.0 6.0 0.00 0.26 0.02 83 1007.2
20260831104312 64 272 2.0 7.0 0.00 0.26 0.02 83 1007.2
20260831103812 64 240 2.0 5.0 0.00 0.26 0.02 84 1007.2
20260831103313 64 276 1.0 5.0 0.00 0.26 0.02 85 1007.1
20260831102812 63 322 1.0 3.0 0.00 0.26 0.02 85 1007.1
20260831102313 63 306 1.0 3.0 0.00 0.26 0.02 84 1007.1
20260831101812 63 283 2.0 7.0 0.00 0.26 0.02 83 1007.0
20260831101312 63 280 3.0 6.0 0.00 0.26 0.02 84 1007.0
20260831100812 63 248 3.0 8.0 0.00 0.26 0.02 84 1007.0
20260831095812 64 254 3.0 10.0 0.00 0.26 0.02 83 1006.9
20260831095312 64 298 2.0 12.0 0.00 0.26 0.02 84 1006.9
20260831094312 64 321 2.0 5.0 0.00 0.26 0.02 84 1006.7
20260831093812 64 279 1.0 3.0 0.00 0.26 0.02 85 1006.7
20260831093312 63 315 1.0 3.0 0.00 0.26 0.02 86 1006.6
20260831092812 63 262 3.0 7.0 0.00 0.26 0.02 86 1006.5
20260831092312 62 248 1.0 6.0 0.00 0.26 0.02 87 1006.4
20260831090812 61 256 2.0 7.0 0.00 0.26 0.02 88 1006.3
20260831090313 61 250 2.0 6.0 0.00 0.26 0.02 88 1006.2
20260831085813 61 269 3.0 8.0 0.00 0.26 0.02 87 1006.2
20260831085312 61 250 2.0 9.0 0.00 0.26 0.02 89 1006.1
20260831084812 61 297 1.0 5.0 0.00 0.26 0.02 90 1006.0
20260831084312 60 263 1.0 7.0 0.00 0.26 0.02 90 1006.0
20260831083812 60 263 2.0 6.0 0.00 0.26 0.02 91 1005.8
20260831083311 60 245 3.0 6.0 0.00 0.26 0.02 90 1005.8
20260831082812 60 254 4.0 7.0 0.00 0.26 0.02 91 1005.7
20260831082312 60 242 2.0 5.0 0.00 0.26 0.02 92 1005.7
20260831081311 59 252 3.0 7.0 0.00 0.26 0.02 92 1005.4
20260831080811 59 248 2.0 6.0 0.00 0.26 0.02 94 1005.3
20260831080311 59 255 3.0 7.0 0.00 0.26 0.02 93 1005.2
20260831075812 58 267 1.0 5.0 0.00 0.26 0.02 94 1005.2
20260831075312 58 254 1.0 5.0 0.00 0.26 0.02 95 1005.1
20260831074812 58 289 1.0 6.0 0.00 0.26 0.02 95 1005.1
20260831074312 58 300 1.0 6.0 0.00 0.26 0.02 95 1005.0
20260831073812 58 268 1.0 5.0 0.00 0.26 0.02 96 1004.9
20260831073312 58 258 2.0 6.0 0.00 0.26 0.02 95 1004.8
20260831072812 58 273 2.0 3.0 0.00 0.26 0.02 95 1004.8
20260831072312 58 246 1.0 3.0 0.00 0.26 0.02 96 1004.7
20260831071812 57 286 2.0 6.0 0.00 0.26 0.02 96 1004.7
20260831071311 57 256 2.0 5.0 0.00 0.26 0.02 96 1004.6
20260831070812 57 247 2.0 6.0 0.00 0.26 0.02 96 1004.5
20260831070311 57 325 2.0 3.0 0.00 0.26 0.02 96 1004.5
20260831065812 57 288 1.0 3.0 0.00 0.26 0.02 96 1004.4
20260831065311 57 300 1.0 3.0 0.00 0.26 0.02 96 1004.3
20260831064812 56 270 2.0 3.0 0.00 0.26 0.02 96 1004.3
20260831064312 56 282 1.0 3.0 0.00 0.26 0.02 96 1004.2